| time (UTC) | temp C | wind direction | speed KPH | gust KPH | rain 1hr cm | rain 24hr cm | rain mn cm | humidity % | barometer mb |
| 20260505122108 | 16 | 208 | 17.7 | 27.4 | 0.00 | 0.00 | 0.00 | 81 | 1010.9 |
| 20260505121557 | 16 | 195 | 16.1 | 27.4 | 0.00 | 0.00 | 0.00 | 82 | 1010.9 |
| 20260505121052 | 16 | 192 | 16.1 | 27.4 | 0.00 | 0.00 | 0.00 | 82 | 1010.9 |
| 20260505121035 | 16 | 206 | 16.1 | 27.4 | 0.00 | 0.00 | 0.00 | 83 | 1010.8 |
| 20260505120045 | 15 | 209 | 16.1 | 27.4 | 0.00 | 0.00 | 0.00 | 83 | 1010.8 |
| 20260505115532 | 15 | 203 | 14.5 | 27.4 | 0.00 | 0.00 | 0.00 | 84 | 1010.8 |
| 20260505115305 | 15 | 193 | 14.5 | 22.5 | 0.00 | 0.00 | 0.00 | 84 | 1010.7 |
| 20260505114533 | 15 | 199 | 17.7 | 25.7 | 0.00 | 0.00 | 0.00 | 84 | 1010.7 |
| 20260505114035 | 15 | 194 | 17.7 | 25.7 | 0.00 | 0.00 | 0.00 | 84 | 1010.7 |
| 20260505113522 | 15 | 190 | 16.1 | 25.7 | 0.00 | 0.00 | 0.00 | 84 | 1010.7 |
| 20260505113026 | 15 | 197 | 16.1 | 24.1 | 0.00 | 0.00 | 0.00 | 83 | 1010.7 |
| 20260505112512 | 15 | 164 | 16.1 | 22.5 | 0.00 | 0.00 | 0.00 | 84 | 1010.7 |
| 20260505112015 | 15 | 190 | 16.1 | 24.1 | 0.00 | 0.00 | 0.00 | 84 | 1010.7 |
| 20260505111720 | 15 | 180 | 16.1 | 24.1 | 0.00 | 0.00 | 0.00 | 84 | 1010.7 |
| 20260505111234 | 15 | 184 | 16.1 | 25.7 | 0.00 | 0.00 | 0.00 | 85 | 1010.7 |
| 20260505110931 | 15 | 184 | 16.1 | 25.7 | 0.00 | 0.00 | 0.00 | 85 | 1010.5 |
| 20260505101830 | 15 | 207 | 14.5 | 25.7 | 0.00 | 0.00 | 0.00 | 84 | 1010.1 |
| 20260505101302 | 15 | 205 | 12.9 | 22.5 | 0.00 | 0.00 | 0.00 | 85 | 1010.1 |
| 20260505100735 | 15 | 201 | 11.3 | 20.9 | 0.00 | 0.00 | 0.00 | 85 | 1010.1 |
| 20260505100209 | 15 | 209 | 11.3 | 19.3 | 0.00 | 0.00 | 0.00 | 85 | 1010.1 |
| 20260505095645 | 15 | 167 | 11.3 | 17.7 | 0.00 | 0.00 | 0.00 | 85 | 1010.1 |
| 20260505095143 | 15 | 197 | 11.3 | 17.7 | 0.00 | 0.00 | 0.00 | 85 | 1009.8 |
| 20260505094620 | 15 | 201 | 14.5 | 20.9 | 0.00 | 0.00 | 0.00 | 85 | 1009.8 |
| 20260505094050 | 15 | 203 | 14.5 | 20.9 | 0.00 | 0.00 | 0.00 | 84 | 1009.8 |
| 20260505093525 | 15 | 220 | 14.5 | 20.9 | 0.00 | 0.00 | 0.00 | 84 | 1010.1 |
| 20260505093028 | 15 | 225 | 12.9 | 20.9 | 0.00 | 0.00 | 0.00 | 84 | 1010.1 |
| 20260505092517 | 15 | 171 | 12.9 | 19.3 | 0.00 | 0.00 | 0.00 | 84 | 1010.1 |
| 20260505092017 | 15 | 197 | 12.9 | 17.7 | 0.00 | 0.00 | 0.00 | 84 | 1009.8 |
| 20260505091521 | 15 | 201 | 14.5 | 19.3 | 0.00 | 0.00 | 0.00 | 83 | 1009.8 |
| 20260505091019 | 15 | 200 | 14.5 | 20.9 | 0.00 | 0.00 | 0.00 | 83 | 1009.8 |
| 20260505090520 | 15 | 190 | 14.5 | 20.9 | 0.00 | 0.00 | 0.00 | 83 | 1009.8 |
| 20260505090014 | 15 | 218 | 16.1 | 22.5 | 0.00 | 0.00 | 0.00 | 83 | 1009.8 |
| 20260505085514 | 15 | 188 | 14.5 | 25.7 | 0.00 | 0.00 | 0.00 | 83 | 1009.9 |
| 20260505084959 | 15 | 202 | 14.5 | 25.7 | 0.00 | 0.00 | 0.00 | 84 | 1009.9 |
| 20260505084503 | 15 | 178 | 14.5 | 22.5 | 0.00 | 0.00 | 0.00 | 84 | 1009.9 |
| 20260505083955 | 15 | 211 | 14.5 | 22.5 | 0.00 | 0.00 | 0.00 | 85 | 1009.9 |
| 20260505083458 | 15 | 201 | 14.5 | 25.7 | 0.00 | 0.00 | 0.00 | 85 | 1009.9 |
| 20260505083206 | 15 | 214 | 14.5 | 20.9 | 0.00 | 0.00 | 0.00 | 86 | 1009.9 |
| 20260505082422 | 15 | 192 | 12.9 | 19.3 | 0.00 | 0.00 | 0.00 | 85 | 1009.8 |
| 20260505081924 | 15 | 192 | 12.9 | 19.3 | 0.00 | 0.00 | 0.00 | 85 | 1009.8 |
| 20260505081409 | 15 | 204 | 12.9 | 19.3 | 0.00 | 0.00 | 0.00 | 86 | 1009.8 |
| 20260505081100 | 15 | 222 | 14.5 | 22.5 | 0.00 | 0.00 | 0.00 | 86 | 1009.9 |
| 20260505080338 | 14 | 201 | 14.5 | 27.4 | 0.00 | 0.00 | 0.00 | 86 | 1009.9 |
| 20260505080055 | 14 | 228 | 16.1 | 27.4 | 0.00 | 0.00 | 0.00 | 86 | 1009.9 |
| 20260505075330 | 14 | 201 | 16.1 | 22.5 | 0.00 | 0.00 | 0.00 | 86 | 1009.7 |
| 20260505074823 | 14 | 209 | 16.1 | 25.7 | 0.00 | 0.00 | 0.00 | 86 | 1009.7 |
| 20260505074325 | 14 | 182 | 16.1 | 25.7 | 0.00 | 0.00 | 0.00 | 86 | 1009.7 |
| 20260505073819 | 14 | 170 | 17.7 | 25.7 | 0.00 | 0.00 | 0.00 | 86 | 1009.7 |
| 20260505073320 | 14 | 188 | 17.7 | 27.4 | 0.00 | 0.00 | 0.00 | 86 | 1009.7 |
| 20260505072749 | 14 | 213 | 17.7 | 25.7 | 0.00 | 0.00 | 0.00 | 85 | 1009.7 |
| 20260505072502 | 14 | 189 | 17.7 | 27.4 | 0.00 | 0.00 | 0.00 | 85 | 1009.7 |
| 20260505071733 | 15 | 218 | 17.7 | 27.4 | 0.00 | 0.00 | 0.00 | 85 | 1009.7 |
| 20260505071452 | 14 | 205 | 17.7 | 25.7 | 0.00 | 0.00 | 0.00 | 85 | 1009.7 |
| 20260505070924 | 14 | 184 | 16.1 | 25.7 | 0.00 | 0.00 | 0.00 | 85 | 1009.7 |
| 20260505070146 | 14 | 214 | 16.1 | 24.1 | 0.00 | 0.00 | 0.00 | 85 | 1009.7 |
| 20260505065625 | 14 | 225 | 16.1 | 24.1 | 0.00 | 0.00 | 0.00 | 86 | 1009.7 |
| 20260505065343 | 14 | 196 | 16.1 | 25.7 | 0.00 | 0.00 | 0.00 | 86 | 1009.6 |
| 20260505065057 | 14 | 177 | 16.1 | 25.7 | 0.00 | 0.00 | 0.00 | 86 | 1009.6 |
| 20260505064111 | 14 | 192 | 16.1 | 25.7 | 0.00 | 0.00 | 0.00 | 86 | 1009.6 |
| 20260505064030 | 14 | 215 | 17.7 | 25.7 | 0.00 | 0.00 | 0.00 | 87 | 1009.7 |
| 20260505063020 | 14 | 192 | 17.7 | 25.7 | 0.00 | 0.00 | 0.00 | 87 | 1009.7 |
| 20260505062519 | 13 | 186 | 16.1 | 27.4 | 0.00 | 0.00 | 0.00 | 87 | 1009.7 |
| 20260505062012 | 13 | 193 | 16.1 | 27.4 | 0.00 | 0.00 | 0.00 | 86 | 1009.8 |
| 20260505061508 | 14 | 199 | 20.9 | 32.2 | 0.00 | 0.00 | 0.00 | 86 | 1009.8 |
| 20260505061232 | 14 | 184 | 24.1 | 37.0 | 0.00 | 0.00 | 0.00 | 86 | 1009.8 |
| 20260505060504 | 14 | 192 | 25.7 | 37.0 | 0.00 | 0.00 | 0.00 | 86 | 1010.0 |
| 20260505055938 | 14 | 183 | 25.7 | 37.0 | 0.00 | 0.00 | 0.00 | 86 | 1010.0 |
| 20260505055410 | 14 | 165 | 25.7 | 40.2 | 0.00 | 0.00 | 0.00 | 86 | 1010.1 |
| 20260505055129 | 14 | 178 | 25.7 | 40.2 | 0.00 | 0.00 | 0.00 | 86 | 1010.1 |
| 20260505054602 | 14 | 196 | 27.4 | 45.1 | 0.00 | 0.00 | 0.00 | 86 | 1010.1 |
| 20260505053845 | 14 | 168 | 25.7 | 45.1 | 0.00 | 0.00 | 0.00 | 86 | 1010.0 |
| 20260505053345 | 14 | 200 | 22.5 | 38.6 | 0.00 | 0.00 | 0.00 | 86 | 1010.0 |
| 20260505053107 | 14 | 147 | 22.5 | 38.6 | 0.00 | 0.00 | 0.00 | 86 | 1010.0 |
| 20260505052342 | 14 | 191 | 22.5 | 33.8 | 0.00 | 0.00 | 0.00 | 86 | 1010.2 |
| 20260505051842 | 14 | 201 | 24.1 | 38.6 | 0.00 | 0.00 | 0.00 | 86 | 1010.2 |
| 20260505051339 | 14 | 203 | 20.9 | 38.6 | 0.00 | 0.00 | 0.00 | 87 | 1010.2 |
| 20260505050837 | 14 | 195 | 19.3 | 30.6 | 0.00 | 0.00 | 0.00 | 87 | 1010.4 |
| 20260505050339 | 13 | 200 | 20.9 | 30.6 | 0.00 | 0.00 | 0.00 | 87 | 1010.4 |
| 20260505041220 | 14 | 199 | 17.7 | 32.2 | 0.00 | 0.00 | 0.00 | 87 | 1010.6 |
| 20260505040719 | 14 | 201 | 19.3 | 30.6 | 0.00 | 0.00 | 0.00 | 86 | 1010.7 |
| 20260505040220 | 14 | 201 | 20.9 | 35.4 | 0.00 | 0.00 | 0.00 | 86 | 1010.7 |
| 20260505035708 | 14 | 175 | 20.9 | 35.4 | 0.00 | 0.00 | 0.00 | 86 | 1010.7 |
| 20260505035207 | 14 | 186 | 19.3 | 35.4 | 0.00 | 0.00 | 0.00 | 87 | 1010.7 |
| 20260505034647 | 14 | 177 | 19.3 | 32.2 | 0.00 | 0.00 | 0.00 | 86 | 1010.7 |
| 20260505034148 | 14 | 190 | 17.7 | 30.6 | 0.00 | 0.00 | 0.00 | 86 | 1010.7 |
| 20260505034136 | 14 | 144 | 19.3 | 38.6 | 0.00 | 0.00 | 0.00 | 86 | 1010.7 |
| 20260505033137 | 14 | 191 | 22.5 | 38.6 | 0.00 | 0.00 | 0.00 | 86 | 1010.7 |
| 20260505032638 | 14 | 208 | 24.1 | 38.6 | 0.00 | 0.00 | 0.00 | 85 | 1010.7 |
| 20260505032114 | 14 | 178 | 24.1 | 38.6 | 0.00 | 0.00 | 0.00 | 85 | 1010.7 |
| 20260505031610 | 15 | 209 | 22.5 | 37.0 | 0.00 | 0.00 | 0.00 | 85 | 1010.7 |
| 20260505031111 | 14 | 206 | 22.5 | 35.4 | 0.00 | 0.00 | 0.00 | 85 | 1010.7 |
| 20260505030547 | 15 | 123 | 22.5 | 35.4 | 0.00 | 0.00 | 0.00 | 85 | 1010.7 |
| 20260505030048 | 15 | 199 | 20.9 | 35.4 | 0.00 | 0.00 | 0.00 | 85 | 1010.7 |
| 20260505025539 | 15 | 175 | 20.9 | 33.8 | 0.00 | 0.00 | 0.00 | 84 | 1010.7 |
| 20260505025309 | 15 | 155 | 20.9 | 40.2 | 0.00 | 0.00 | 0.00 | 84 | 1010.7 |
| 20260505024752 | 15 | 221 | 19.3 | 40.2 | 0.00 | 0.00 | 0.00 | 84 | 1010.7 |
| 20260505024033 | 15 | 188 | 17.7 | 33.8 | 0.00 | 0.00 | 0.00 | 83 | 1010.7 |
| 20260505023530 | 15 | 199 | 17.7 | 33.8 | 0.00 | 0.00 | 0.00 | 82 | 1010.8 |
| 20260505023030 | 15 | 207 | 19.3 | 35.4 | 0.00 | 0.00 | 0.00 | 81 | 1010.8 |
| 20260505022521 | 15 | 139 | 20.9 | 35.4 | 0.00 | 0.00 | 0.00 | 79 | 1010.8 |
| 20260505022017 | 16 | 195 | 24.1 | 38.6 | 0.00 | 0.00 | 0.00 | 78 | 1010.9 |
| 20260505021520 | 16 | 205 | 24.1 | 43.5 | 0.00 | 0.00 | 0.00 | 78 | 1010.9 |
| 20260505021018 | 16 | 194 | 22.5 | 43.5 | 0.00 | 0.00 | 0.00 | 78 | 1010.9 |
| 20260505020741 | 16 | 198 | 20.9 | 33.8 | 0.00 | 0.00 | 0.00 | 78 | 1010.9 |
| 20260505015950 | 16 | 161 | 22.5 | 33.8 | 0.00 | 0.00 | 0.00 | 78 | 1010.9 |
| 20260505015421 | 16 | 180 | 22.5 | 37.0 | 0.00 | 0.00 | 0.00 | 78 | 1010.8 |
| 20260505014920 | 16 | 196 | 22.5 | 37.0 | 0.00 | 0.00 | 0.00 | 78 | 1010.8 |
| 20260505014644 | 16 | 191 | 20.9 | 29.0 | 0.00 | 0.00 | 0.00 | 78 | 1010.8 |
| 20260505013919 | 16 | 207 | 20.9 | 27.4 | 0.00 | 0.00 | 0.00 | 78 | 1010.8 |
| 20260505013420 | 16 | 183 | 20.9 | 29.0 | 0.00 | 0.00 | 0.00 | 78 | 1010.8 |
| 20260505012902 | 16 | 198 | 22.5 | 29.0 | 0.00 | 0.00 | 0.00 | 77 | 1010.8 |
| 20260505012358 | 16 | 177 | 20.9 | 33.8 | 0.00 | 0.00 | 0.00 | 77 | 1010.7 |
| 20260505011902 | 16 | 204 | 19.3 | 33.8 | 0.00 | 0.00 | 0.00 | 78 | 1010.7 |
| 20260505011558 | 15 | 205 | 17.7 | 32.2 | 0.00 | 0.00 | 0.00 | 79 | 1010.7 |
| 20260505010835 | 15 | 186 | 20.9 | 32.2 | 0.00 | 0.00 | 0.00 | 79 | 1010.6 |
| 20260505010310 | 15 | 159 | 22.5 | 32.2 | 0.00 | 0.00 | 0.00 | 79 | 1010.6 |
| 20260505005804 | 15 | 205 | 24.1 | 33.8 | 0.00 | 0.00 | 0.00 | 79 | 1010.6 |
| 20260505005503 | 15 | 185 | 22.5 | 35.4 | 0.00 | 0.00 | 0.00 | 80 | 1010.4 |
| 20260505004732 | 15 | 190 | 20.9 | 33.8 | 0.00 | 0.00 | 0.00 | 80 | 1010.4 |
| 20260505004230 | 15 | 189 | 22.5 | 33.8 | 0.00 | 0.00 | 0.00 | 80 | 1010.4 |
| 20260505003709 | 15 | 178 | 20.9 | 32.2 | 0.00 | 0.00 | 0.00 | 82 | 1010.2 |
| 20260505003208 | 15 | 190 | 19.3 | 33.8 | 0.00 | 0.00 | 0.00 | 82 | 1010.2 |
| 20260505002704 | 15 | 172 | 20.9 | 33.8 | 0.00 | 0.00 | 0.00 | 82 | 1010.2 |
| 20260505002426 | 15 | 170 | 20.9 | 33.8 | 0.00 | 0.00 | 0.00 | 83 | 1010.2 |
| 20260505001634 | 15 | 195 | 20.9 | 32.2 | 0.00 | 0.00 | 0.00 | 83 | 1010.2 |
| 20260505001131 | 15 | 184 | 19.3 | 32.2 | 0.00 | 0.00 | 0.00 | 83 | 1010.2 |
| 20260505000607 | 14 | 192 | 20.9 | 32.2 | 0.00 | 0.00 | 0.00 | 83 | 1010.0 |
| 20260505000314 | 14 | 160 | 22.5 | 32.2 | 0.00 | 0.00 | 0.00 | 83 | 1010.0 |
| 20260504235814 | 14 | 197 | 22.5 | 33.8 | 0.00 | 0.00 | 0.00 | 82 | 1010.0 |
| 20260504235031 | 14 | 178 | 24.1 | 33.8 | 0.00 | 0.00 | 0.00 | 82 | 1009.8 |
| 20260504234530 | 14 | 176 | 24.1 | 37.0 | 0.00 | 0.00 | 0.00 | 82 | 1009.8 |
| 20260504234252 | 14 | 190 | 24.1 | 37.0 | 0.00 | 0.00 | 0.00 | 82 | 1009.8 |
| 20260504233528 | 15 | 190 | 24.1 | 35.4 | 0.00 | 0.00 | 0.00 | 81 | 1009.7 |
| 20260504232957 | 15 | 173 | 24.1 | 40.2 | 0.00 | 0.00 | 0.00 | 81 | 1009.7 |
| 20260504232707 | 15 | 182 | 24.1 | 40.2 | 0.00 | 0.00 | 0.00 | 81 | 1009.7 |
| 20260504231950 | 15 | 183 | 24.1 | 38.6 | 0.00 | 0.00 | 0.00 | 81 | 1009.7 |
| 20260504231421 | 15 | 198 | 22.5 | 38.6 | 0.00 | 0.00 | 0.00 | 81 | 1009.7 |
| 20260504230913 | 15 | 188 | 22.5 | 41.8 | 0.00 | 0.00 | 0.00 | 80 | 1009.7 |
| 20260504230412 | 15 | 203 | 24.1 | 45.1 | 0.00 | 0.00 | 0.00 | 81 | 1009.7 |
| 20260504225851 | 15 | 207 | 25.7 | 45.1 | 0.00 | 0.00 | 0.00 | 80 | 1009.7 |
| 20260504225341 | 15 | 188 | 24.1 | 40.2 | 0.00 | 0.00 | 0.00 | 79 | 1009.6 |
| 20260504224839 | 15 | 210 | 24.1 | 37.0 | 0.00 | 0.00 | 0.00 | 78 | 1009.6 |
| 20260504224319 | 16 | 173 | 27.4 | 41.8 | 0.00 | 0.00 | 0.00 | 78 | 1009.6 |
| 20260504223804 | 16 | 174 | 27.4 | 41.8 | 0.00 | 0.00 | 0.00 | 78 | 1009.7 |
| 20260504223303 | 16 | 167 | 25.7 | 41.8 | 0.00 | 0.00 | 0.00 | 77 | 1009.7 |
| 20260504222750 | 16 | 199 | 27.4 | 38.6 | 0.00 | 0.00 | 0.00 | 76 | 1009.7 |
| 20260504222459 | 16 | 202 | 29.0 | 46.7 | 0.00 | 0.00 | 0.00 | 75 | 1009.7 |
| 20260504221706 | 16 | 180 | 29.0 | 46.7 | 0.00 | 0.00 | 0.00 | 74 | 1009.7 |
| 20260504221205 | 16 | 184 | 27.4 | 43.5 | 0.00 | 0.00 | 0.00 | 74 | 1009.7 |
| 20260504220705 | 16 | 187 | 25.7 | 43.5 | 0.00 | 0.00 | 0.00 | 74 | 1009.7 |
| 20260504220404 | 16 | 203 | 29.0 | 45.1 | 0.00 | 0.00 | 0.00 | 76 | 1009.7 |
| 20260504215640 | 16 | 211 | 27.4 | 45.1 | 0.00 | 0.00 | 0.00 | 76 | 1009.7 |
| 20260504215113 | 16 | 197 | 22.5 | 37.0 | 0.00 | 0.00 | 0.00 | 76 | 1009.7 |
| 20260504214614 | 16 | 207 | 22.5 | 37.0 | 0.00 | 0.00 | 0.00 | 76 | 1009.7 |
| 20260504214113 | 16 | 199 | 25.7 | 41.8 | 0.00 | 0.00 | 0.00 | 77 | 1009.7 |
| 20260504213612 | 16 | 195 | 25.7 | 41.8 | 0.00 | 0.00 | 0.00 | 76 | 1009.7 |
| 20260504213111 | 16 | 173 | 25.7 | 40.2 | 0.00 | 0.00 | 0.00 | 75 | 1009.7 |
| 20260504212611 | 16 | 209 | 25.7 | 41.8 | 0.00 | 0.00 | 0.00 | 74 | 1009.7 |
| 20260504212102 | 16 | 204 | 27.4 | 45.1 | 0.00 | 0.00 | 0.00 | 75 | 1009.7 |
| 20260504211605 | 16 | 224 | 25.7 | 45.1 | 0.00 | 0.00 | 0.00 | 76 | 1009.7 |
| 20260504211036 | 16 | 182 | 27.4 | 40.2 | 0.00 | 0.00 | 0.00 | 75 | 1009.7 |
| 20260504210537 | 16 | 183 | 27.4 | 46.7 | 0.00 | 0.00 | 0.00 | 75 | 1009.7 |
| 20260504210038 | 16 | 180 | 30.6 | 46.7 | 0.00 | 0.00 | 0.00 | 76 | 1009.7 |
| 20260504205529 | 16 | 192 | 30.6 | 45.1 | 0.00 | 0.00 | 0.00 | 76 | 1009.7 |
| 20260504205029 | 16 | 219 | 29.0 | 48.3 | 0.00 | 0.00 | 0.00 | 76 | 1009.6 |
| 20260504204524 | 16 | 180 | 30.6 | 48.3 | 0.00 | 0.00 | 0.00 | 75 | 1009.6 |
| 20260504203958 | 16 | 181 | 29.0 | 48.3 | 0.00 | 0.00 | 0.00 | 75 | 1009.7 |
| 20260504203451 | 16 | 153 | 27.4 | 45.1 | 0.00 | 0.00 | 0.00 | 75 | 1009.7 |
| 20260504202950 | 16 | 190 | 29.0 | 45.1 | 0.00 | 0.00 | 0.00 | 74 | 1009.7 |
| 20260504202440 | 16 | 169 | 25.7 | 43.5 | 0.00 | 0.00 | 0.00 | 74 | 1009.7 |
| 20260504201937 | 16 | 199 | 24.1 | 43.5 | 0.00 | 0.00 | 0.00 | 74 | 1009.7 |
| 20260504201435 | 16 | 188 | 24.1 | 43.5 | 0.00 | 0.00 | 0.00 | 73 | 1009.7 |
| 20260504200907 | 16 | 172 | 27.4 | 45.1 | 0.00 | 0.00 | 0.00 | 73 | 1009.7 |
| 20260504200637 | 16 | 178 | 30.6 | 49.9 | 0.00 | 0.00 | 0.00 | 71 | 1009.7 |
| 20260504195903 | 16 | 165 | 32.2 | 49.9 | 0.00 | 0.00 | 0.00 | 69 | 1009.7 |
| 20260504195401 | 16 | 203 | 29.0 | 46.7 | 0.00 | 0.00 | 0.00 | 69 | 1009.9 |
| 20260504195059 | 16 | 165 | 25.7 | 38.6 | 0.00 | 0.00 | 0.00 | 72 | 1009.9 |
| 20260504194308 | 15 | 161 | 25.7 | 37.0 | 0.00 | 0.00 | 0.00 | 74 | 1009.9 |
| 20260504193757 | 16 | 181 | 24.1 | 35.4 | 0.00 | 0.00 | 0.00 | 71 | 1010.1 |
| 20260504193255 | 16 | 160 | 24.1 | 48.3 | 0.00 | 0.00 | 0.00 | 70 | 1010.1 |
| 20260504192957 | 17 | 136 | 22.5 | 48.3 | 0.00 | 0.00 | 0.00 | 67 | 1010.1 |
| 20260504192211 | 16 | 197 | 22.5 | 40.2 | 0.00 | 0.00 | 0.00 | 69 | 1010.2 |
| 20260504191709 | 17 | 188 | 24.1 | 48.3 | 0.00 | 0.00 | 0.00 | 66 | 1010.2 |
| 20260504191416 | 17 | 191 | 24.1 | 48.3 | 0.00 | 0.00 | 0.00 | 64 | 1010.2 |
| 20260504190657 | 17 | 153 | 24.1 | 38.6 | 0.00 | 0.00 | 0.00 | 67 | 1010.5 |
| 20260504190129 | 17 | 188 | 25.7 | 41.8 | 0.00 | 0.00 | 0.00 | 65 | 1010.5 |
| 20260504185627 | 17 | 176 | 25.7 | 41.8 | 0.00 | 0.00 | 0.00 | 65 | 1010.5 |
| 20260504185128 | 17 | 190 | 27.4 | 46.7 | 0.00 | 0.00 | 0.00 | 66 | 1010.5 |
| 20260504184615 | 17 | 185 | 29.0 | 48.3 | 0.00 | 0.00 | 0.00 | 67 | 1010.5 |
| 20260504184116 | 17 | 176 | 29.0 | 48.3 | 0.00 | 0.00 | 0.00 | 66 | 1010.5 |
| 20260504183615 | 17 | 176 | 25.7 | 43.5 | 0.00 | 0.00 | 0.00 | 67 | 1010.7 |
| 20260504183324 | 17 | 163 | 25.7 | 41.8 | 0.00 | 0.00 | 0.00 | 68 | 1010.7 |
| 20260504182549 | 17 | 178 | 25.7 | 46.7 | 0.00 | 0.00 | 0.00 | 69 | 1010.7 |
| 20260504182051 | 17 | 170 | 25.7 | 45.1 | 0.00 | 0.00 | 0.00 | 67 | 1010.8 |
| 20260504181542 | 17 | 207 | 27.4 | 40.2 | 0.00 | 0.00 | 0.00 | 66 | 1010.8 |
| 20260504181044 | 17 | 178 | 27.4 | 43.5 | 0.00 | 0.00 | 0.00 | 65 | 1010.8 |
| 20260504180527 | 17 | 185 | 27.4 | 45.1 | 0.00 | 0.00 | 0.00 | 65 | 1011.1 |
| 20260504180030 | 17 | 186 | 27.4 | 45.1 | 0.00 | 0.00 | 0.00 | 66 | 1011.1 |
| 20260504175510 | 17 | 199 | 24.1 | 49.9 | 0.00 | 0.00 | 0.00 | 67 | 1011.2 |
| 20260504175005 | 17 | 146 | 24.1 | 49.9 | 0.00 | 0.00 | 0.00 | 66 | 1011.2 |
| 20260504174507 | 17 | 175 | 27.4 | 45.1 | 0.00 | 0.00 | 0.00 | 66 | 1011.2 |
| 20260504173950 | 17 | 182 | 29.0 | 45.1 | 0.00 | 0.00 | 0.00 | 67 | 1011.2 |
| 20260504173423 | 17 | 170 | 25.7 | 43.5 | 0.00 | 0.00 | 0.00 | 68 | 1011.2 |
| 20260504172921 | 17 | 162 | 20.9 | 32.2 | 0.00 | 0.00 | 0.00 | 68 | 1011.2 |
| 20260504172423 | 17 | 173 | 19.3 | 30.6 | 0.00 | 0.00 | 0.00 | 68 | 1011.7 |
| 20260504171911 | 17 | 176 | 20.9 | 37.0 | 0.00 | 0.00 | 0.00 | 65 | 1011.7 |
| 20260504171339 | 17 | 199 | 24.1 | 40.2 | 0.00 | 0.00 | 0.00 | 64 | 1011.7 |
| 20260504170837 | 17 | 190 | 25.7 | 43.5 | 0.00 | 0.00 | 0.00 | 66 | 1011.8 |
| 20260504170338 | 17 | 195 | 25.7 | 48.3 | 0.00 | 0.00 | 0.00 | 64 | 1011.8 |
| 20260504150714 | 17 | 171 | 20.9 | 40.2 | 0.00 | 0.00 | 0.00 | 63 | 1012.8 |
| 20260504141254 | 16 | 182 | 20.9 | 40.2 | 0.00 | 0.00 | 0.00 | 62 | 1013.0 |
| 20260504140754 | 16 | 201 | 19.3 | 32.2 | 0.00 | 0.00 | 0.00 | 61 | 1013.3 |
| 20260504140224 | 16 | 175 | 19.3 | 33.8 | 0.00 | 0.00 | 0.00 | 61 | 1013.3 |
| 20260504130611 | 16 | 204 | 19.3 | 27.4 | 0.00 | 0.00 | 0.00 | 58 | 1013.8 |
| 20260504130319 | 15 | 210 | 20.9 | 29.0 | 0.00 | 0.00 | 0.00 | 59 | 1013.8 |